Hourly Data Report for October 10, 2019

SHEARWATER RCS
NOVA SCOTIA
Current Station Operator: ECCC - MSC

44°37'47.000" N
63°30'48.000" W
24.00 m
8205092
71264
AAW

Download Data

Hourly Data (October 2019)
Hourly Data Report for October 10, 2019
TIME
LST
Temp Definition
°C
Dew Point Definition
°C
Rel Hum Definition
%
Precip. Amount Definition
mm

Wind Dir Definition
10's deg

Wind Spd Definition
km/h
Visibility Definition
km
Stn Press Definition
kPa
Hmdx Definition


Wind Chill Definition


Weather Definition


00:00 7.8 3.9 76 0.0 3 6   102.77     LegendNANA
01:00 7.8 4.1 77 0.0 4 12   102.65     LegendNANA
02:00 8.0 4.7 80 0.0 4 10   102.62     LegendNANA
03:00 8.0 4.5 79 0.0 4 9   102.63     LegendNANA
04:00 8.0 4.9 81 0.0 4 13   102.59     LegendNANA
05:00 8.0 5.2 83 0.0 5 8   102.67     LegendNANA
06:00 7.4 4.8 84 0.0 4 10   102.67     LegendNANA
07:00 7.1 4.5 84 0.0 6 8   102.70     LegendNANA
08:00 8.0 3.7 74 0.0 3 10   102.69     LegendNANA
09:00 9.4 4.1 70 0.0 5 14   102.67     LegendNANA
10:00 10.2 3.4 63 0.0 6 15   102.70     LegendNANA
11:00 12.3 3.6 55 0.0 7 18   102.70     LegendNANA
12:00 13.7 4.4 53 0.0 7 11   102.68     LegendNANA
13:00 14.1 5.8 57 0.0 10 15   102.62     LegendNANA
14:00 14.2 2.0 44 0.0 9 15   102.61     LegendNANA
15:00 14.7 2.9 45 0.0 6 22   102.56     LegendNANA
16:00 14.4 2.9 46 0.0 7 18   102.55     LegendNANA
17:00 13.2 3.1 50 0.0 7 14   102.54     LegendNANA
18:00 12.0 4.9 62 0.0 6 11   102.51     LegendNANA
19:00 11.5 6.1 69 0.0 6 15   102.49     LegendNANA
20:00 10.8 4.5 65 0.0 6 13   102.52     LegendNANA
21:00 10.4 4.3 66 0.0 5 11   102.53     LegendNANA
22:00 10.1 3.9 65 0.0 5 13   102.55     LegendNANA
23:00 10.0 3.3 63 0.0 6 13   102.56     LegendNANA

Notes on Data Quality.

Legend

  • E = Estimated
  • M = Missing
  • NA = Not Available*
  • [empty] = Indicates an unobserved value
Date modified: